Regional Weather Roundup
Issued by NWS

Home | Current Version | Previous Version | Graphics & Text | Print | Product List | Glossary On
Versions: 1 2 3 4 5 6 7 8 9 10 11 12 13 14 15 16 17 18 19 20 21 22 23 24 25 26 27 28 29 30 31 32 33 34 35 36 37 38 39 40 41 42 43 44 45 46 47 48 49 50
266
ASUS43 KMPX 270510
RWRMN
WEATHER ROUNDUP FOR MINNESOTA
NATIONAL WEATHER SERVICE TWIN CITIES/CHANHASSEN MN
1100 PM CST SUN FEB 26 2017


NOTE: "FAIR" INDICATES FEW OR NO CLOUDS BELOW 12,000 FEET WITH NO
SIGNIFICANT WEATHER AND/OR OBSTRUCTIONS TO VISIBILITY. N/A MEANS
CURRENT SKY AND/OR WEATHER CONDITIONS ARE NOT AVAILABLE.

MNZ060>063-068>070-270600-
   Twin Cities Metro

CITY           SKY/WX    TMP DP  RH WIND       PRES   REMARKS
TWIN CITIES    CLOUDY    30  15  53 CALM      29.95F
ST PAUL        CLOUDY    30  17  58 S3        29.97S
CRYSTAL        CLOUDY    28  14  55 S3        29.94S
BLAINE         CLOUDY    28  19  69 CALM      29.94S
LAKEVILLE        N/A     25  23  93 S3        29.95S
EDEN PRAIRIE   CLOUDY    28  18  66 S6        29.94S WCI  22
SOUTH ST PAUL  CLOUDY    29  18  62 CALM      29.96S
LAKE ELMO      CLOUDY    30  21  69 S5        29.96S WCI  25
$$
MNZ001>005-007-008-013>017-022>024-027-028-270600-
   Northwest Minnesota

CITY           SKY/WX    TMP DP  RH WIND       PRES   REMARKS
BEMIDJI        CLEAR      6   2  84 S3        29.87S
HALLOCK        MOCLDY    14  10  85 SW8       29.87S WCI   3
ROSEAU         CLOUDY    16   9  73 SW12      29.85F WCI   3
WARROAD        MOCLDY    10   7  85 SW7       29.85F WCI   0
THIEF RVR FALL CLEAR      6   3  87 SW6       29.90R WCI  -4
CROOKSTON      CLEAR     10   7  85 SW5       29.92S WCI   2
FOSSTON        CLEAR      5   1  85 S6        29.89S WCI  -6
DETROIT LAKES  CLOUDY    18  12  79 CALM      29.89F
MOORHEAD       CLOUDY    18  10  73 SE7       29.92F WCI   8
PARK RAPIDS    CLOUDY    11   3  70 CALM      29.88R
MAHNOMEN       FAIR      14  11  87 CALM      29.89S
$$
MNZ006-009>011-018-025>026-270600-
   North Central Minnesota

CITY           SKY/WX    TMP DP  RH WIND       PRES   REMARKS
BAUDETTE       CLEAR      8   2  76 SW6       29.85S WCI  -2
FLAG ISLAND    CLOUDY    12   7  79 SW13      29.82F WCI  -3
INTL FALLS     CLEAR     10   1  67 W5        29.87R WCI   2
WASKISH        CLEAR      5   1  85 CALM      29.88S
BIG FORK       CLEAR      0  -4  85 CALM      29.88S
LONGVILLE      CLEAR      3   1  92 CALM      29.89S
GRAND RAPIDS   CLEAR      3  -2  79 CALM      29.91R
CRANE LAKE     CLEAR     -2  -6  84 CALM      29.90S
ORR            CLEAR      9  -2  61 CALM      29.85S
COOK           CLEAR      1  -2  85 CALM      29.89R
WALKER         FAIR       8   2  75 CALM      29.88S
$$
MNZ012-019>021-037-270600-
   Northeast Minnesota

CITY           SKY/WX    TMP DP  RH WIND       PRES   REMARKS
DULUTH         CLEAR      6   0  76 CALM      29.89R
ELY            CLEAR      0  -4  85 CALM      29.87S
HIBBING        CLEAR     -1  -5  82 CALM      29.88S
EVELETH        CLEAR      0  -6  78 CALM      29.89S
DULUTH HARBOR  CLEAR     16   3  57 CALM      29.95S
TWO HARBORS    CLEAR     10   1  67 NW3       29.89S
SILVER BAY     CLEAR      3   0  85 CALM      29.89S
GRAND MARAIS     N/A     15   3  59 W3        29.93S
G MARAIS ARPRT CLEAR      3  -6  66 W5        29.84S WCI  -6
$$
MNZ029>031-032-039>041-046>048-054>057-064-270600-
   West Central Minnesota

CITY           SKY/WX    TMP DP  RH WIND       PRES   REMARKS
FERGUS FALLS   CLOUDY    16  10  79 W6        29.96S WCI   7
WHEATON        CLOUDY    21  16  79 SE7       29.92F WCI  13
MORRIS         LGT SNOW  21  19  93 SE6       29.90S WCI  14
ALEXANDRIA     CLOUDY    22  13  68 CALM      29.90S
ELBOW LAKE     MOCLDY    16  12  84 CALM      29.90F
WADENA         CLOUDY    12   9  85 CALM      29.89R
GLENWOOD       FLURRIES  21  18  86 S5        29.90S WCI  15
APPLETON       CLOUDY    27  19  74 E5        29.90F WCI  21
BENSON         CLOUDY    27  12  54 CALM      29.92S
ORTONVILLE       N/A     25  16  68 CALM      29.90S
MADISON        CLOUDY    28  23  80 E6        29.89F WCI  22
WILLMAR        MOCLDY    27  19  74 SE5       29.92S WCI  21
$$
MNZ033>034-036-042>043-049>051-058-059-270600-
   Central Minnesota

CITY           SKY/WX    TMP DP  RH WIND       PRES   REMARKS
ST CLOUD       CLOUDY    25  16  68 S3        29.92F
SAUK CENTRE    CLOUDY    24  15  70 S3        29.91S
PAYNESVILLE    CLOUDY    24  16  72 CALM      29.92R
AITKIN         CLOUDY     9   1  72 CALM      29.89F
PINE RIVER     CLOUDY     7   3  85 CALM      29.93S
BRAINERD       CLOUDY    12   7  80 CALM      29.90S
STAPLES        CLOUDY    12   9  85 CALM      29.90R
LONG PRAIRIE   CLOUDY    21  12  68 CALM      29.91S
LITTLE FALLS   CLOUDY    21  10  63 CALM      29.92S
LITCHFIELD     MOCLDY    27  18  69 CALM      29.92S
BUFFALO        CLOUDY    27  15  62 CALM      29.94F
MAPLE LAKE     CLOUDY    27  19  72 CALM      29.93F
HUTCHINSON     PTCLDY    27  22  81 SE3       29.94S
$$
MNZ037-044-045-052-053-270600-
   East Central Minnesota

CITY           SKY/WX    TMP DP  RH WIND       PRES   REMARKS
PRINCETON      CLOUDY    27  16  63 CALM      29.93S
MORA           MOCLDY    21  12  68 CALM      29.95S
CAMBRIDGE      CLOUDY    27  12  54 CALM      29.92F
RUSH CITY      CLOUDY    21  14  73 CALM      29.95R
MOOSE LAKE     CLEAR      7   1  78 CALM      29.91R
HINCKLEY       FAIR      16  12  86 CALM      29.93S
CLOQUET        CLEAR      1  -2  85 CALM      29.90R
MCGREGOR       PTCLDY     5   1  85 CALM      29.91S
$$
MNZ071>073-080-081-089-090-097-098-270600-
   Southwest Minnesota

CITY           SKY/WX    TMP DP  RH WIND       PRES   REMARKS
MONTEVIDEO     CLOUDY    27  21  80 SE6       29.92S WCI  20
GRANITE FALLS  MOCLDY    28  22  80 SE6       29.91F WCI  21
CANBY          MOCLDY    26  23  88 CALM      29.89F
MARSHALL       CLEAR     27  24  89 SE7       29.90S WCI  19
REDWOOD FALLS  CLEAR     27  20  75 SE6       29.91F WCI  20
OLIVIA         PTCLDY    28  21  74 SE7       29.90F WCI  21
PIPESTONE      CLEAR     28  21  74 SW13      29.88S WCI  18
WINDOM         CLEAR     28  25  86 S8        29.92S WCI  20
WORTHINGTON    CLEAR     27  23  85 SW12      29.92F WCI  17
JACKSON        CLEAR     27  21  80 S8        29.93F WCI  18
TRACY          CLEAR     31  27  83 SW15      29.89F WCI  20
SLAYTON        CLEAR     28  25  86 SW16      29.89F WCI  17
$$
MNZ065>067-074>077-082>085-091>093-270600-
   South Central Minnesota

CITY           SKY/WX    TMP DP  RH WIND       PRES   REMARKS
NEW ULM        CLEAR     27  21  80 SE5       29.93F WCI  21
ST JAMES       CLEAR     28  25  86 S6        29.95S WCI  22
FAIRMONT       CLEAR     23  19  85 SW9       29.96S WCI  13
GLENCOE        MOCLDY    29  25  83 CALM      29.93F
FARIBAULT      CLEAR     25  21  86 S7        29.96S WCI  17
OWATONNA       CLEAR     21  19  93 S8        29.95S WCI  12
WASECA         PTCLDY    21  18  86 S10       29.97S WCI  10
ALBERT LEA     CLEAR     23  21  93 SW6       29.97S WCI  16
$$
MNZ078>079-086>088-094>096-270600-
   Southeast Minnesota

CITY           SKY/WX    TMP DP  RH WIND       PRES   REMARKS
ROCHESTER      CLEAR     16  14  92 S6        29.96F WCI   7
RED WING       CLOUDY    25  18  74 CALM      29.97S
STANTON        CLEAR     26  23  86 S7        29.95S WCI  19
WINONA         CLEAR     28  23  80 CALM      30.02R
AUSTIN         CLEAR     18  16  93 S3        29.98S
PRESTON        CLEAR     20  18  90 SW8       29.99R WCI  10
$$
ABBREVIATIONS USED IN REMARKS
   TC - TEMPERATURES IN CELSIUS
  WCI - WIND CHILL INDEX
   HX - HEAT INDEX
  VSB - VISIBILITY
$$




USA.gov is the U.S. government's official web portal to all federal, state and local government web resources and services.